Regional Weather Roundup
Issued by NWS

Home | Current Version | Previous Version | Text Only | Print | Product List | Glossary On
Versions: 1 2 3 4 5 6 7 8 9 10 11 12 13 14 15 16 17 18 19 20 21 22 23 24 25 26 27 28 29 30 31 32 33 34 35 36 37 38 39 40 41 42 43 44 45 46 47 48 49 50
000
ASUS42 KFFC 270803
RWRGA
WEATHER ROUNDUP FOR GEORGIA
NATIONAL WEATHER SERVICE PEACHTREE CITY GA
400 AM EDT WED AUG 27 2014

NOTE: "FAIR" INDICATES FEW OR NO CLOUDS BELOW 12,000 FEET WITH NO
SIGNIFICANT WEATHER AND/OR OBSTRUCTIONS TO VISIBILITY.

* = USE WITH CAUTION. THE STATIONS MARKED WITH AN ASTERISK MAY NOT
REPORT WEATHER SUCH AS PRECIPITATION, FOG, OR THUNDER AND ARE NOT
QUALITY CONTROLLED BY NWS.

THE REMARK "TC" DENOTES TEMPERATURE READING IN DEGREES CELSIUS.

GAZ001>058-270900-
NORTH GEORGIA

CITY           SKY/WX    TMP DP  RH WIND       PRES   REMARKS
ATLANTA        CLEAR     69  59  70 NE8       30.08R
ATHENS         CLEAR     66  60  81 CALM      30.08S
CHAMBLEE       CLEAR     68  58  70 CALM      30.09R
PEACHTREE CITY CLEAR     60  59  96 CALM      30.08S
ROME           CLEAR     64  63  96 CALM      30.08R
WEST ATLANTA   CLEAR     64  60  87 CALM      30.08S
GAINESVILLE    CLEAR     69  60  73 NE6       30.12S
CARTERSVILLE   CLEAR     64  61  90 CALM      30.09R


CITY           SKY/WX    TMP DP  RH WIND       PRES   REMARKS
MARIETTA       CLEAR     69  61  75 NE3       30.09S
$$

GAZ059>098-102>109-270900-
CENTRAL GEORGIA

CITY           SKY/WX    TMP DP  RH WIND       PRES   REMARKS
AUGUSTA-BUSH   CLEAR     62  60  93 CALM      30.03F
AUGUSTA-DANIEL CLEAR     75  60  59 NE8       30.05S
COLUMBUS       CLEAR     70  61  73 CALM      30.03S
MACON          CLEAR     63  63 100 CALM      30.03S
ROBINS AFB     CLEAR     64  62  91 N5        30.03R


CITY           SKY/WX    TMP DP  RH WIND       PRES   REMARKS
LAGRANGE*      CLEAR     64  64  97 CALM      30.06S
SYLVANIA*      CLEAR     68  65  92 NE5       30.02F
MILLEDGEVILLE* CLEAR     68  63  83 CALM      30.05
$$

GAZ099>101-110>166-270900-
SOUTH GEORGIA

CITY           SKY/WX    TMP DP  RH WIND       PRES   REMARKS
SAVANNAH       CLEAR     71  64  78 NE7       29.99F
VALDOSTA       CLEAR     68  66  93 CALM      29.99F
ALMA           CLEAR     66  65  96 CALM      30.00F
ST SIMONS      CLEAR     74  68  81 N3        29.97S
FT STEWART     CLEAR     69  65  89 CALM      29.98F
ALBANY         CLEAR     69  66  90 CALM      30.03R
HUNTER AFB     CLEAR     73  66  78 NE5       29.97F
MOODY AFB      CLEAR     69  67  93 NE2       29.99F
BRUNSWICK      CLEAR     73  68  83 N3        29.99R


CITY           SKY/WX    TMP DP  RH WIND       PRES   REMARKS
BAINBRIDGE*    CLEAR     73  72  94 CALM      30.00S
MOULTRIE*      CLEAR     70  70 100 CALM      30.02R
VIDALIA*         N/A     70  68  94 CALM      30.02S
WAYCROSS*      CLEAR     72  71  98 CALM      30.00S
DOUGLAS*       CLEAR     70  66  88 CALM      30.02S
$$



USA.gov is the U.S. government's official web portal to all federal, state and local government web resources and services.